Weather Roundup
Issued by NWS Corpus Christi, TX

Home | Current Version | Previous Version | Text Only | Print | Product List | Glossary On
Versions: 1 2 3 4 5 6 7 8 9 10 11 12 13 14 15 16 17 18 19 20 21 22 23 24 25 26 27 28 29 30 31 32 33 34 35 36 37 38 39 40 41 42 43 44 45 46 47 48 49 50
000
ASUS44 KCRP 281810
HRRCRP

SOUTH TEXAS REGIONAL WEATHER ROUNDUP
NATIONAL WEATHER SERVICE CORPUS CHRISTI TX
100 PM CDT SUN MAY 28 2017


TXZ229>244-281900-
...CORPUS CHRISTI AREA OBSERVATIONS...

CITY           SKY/WX    TMP DP  RH WIND       PRES   REMARKS
CORPUS CHRISTI CLOUDY    87  78  74 SE16      29.87S HX 100
NAS CORPUS CHR CLOUDY    88  79  74 SE23      29.88F HX 103
ROCKPORT       CLOUDY    86  77  74 SE15      29.91R HX  97
KINGSVILLE NAS CLOUDY    93  79  63 E16       29.85S HX 110
ALICE          CLOUDY    91  75  59 SE14      29.85S HX 101
ORANGE GROVE   CLOUDY    92  77  61 SE14      29.86F HX 105
FALFURRIAS     MOSUNNY   96  72  45 SE14      29.83S HX 105
$$

...VICTORIA AREA OBSERVATIONS...

CITY           SKY/WX    TMP DP  RH WIND       PRES   REMARKS
VICTORIA       PTSUNNY   90  76  63 SE17      29.92F HX 101
BEEVILLE       PTSUNNY   91  77  64 SE8       29.89R HX 104
PLEASANTON     CLOUDY    89  73  58 SE8       29.88F HX  96
SAN ANTONIO    CLOUDY    87  73  62 E9        29.91S HX  94
$$

...LAREDO AREA OBSERVATIONS...

CITY           SKY/WX    TMP DP  RH WIND       PRES   REMARKS
LAREDO         SUNNY     92  74  55 SE14      29.82F HX 101
COTULLA        SUNNY     95  71  45 SE13      29.84R HX 102
DEL RIO        PTSUNNY   87  74  64 SE6       29.89S HX  95
MCALLEN        PTSUNNY   99  75  46 SE20G28   29.81F HX 112
HEBBRONVILLE   CLOUDY    94  67  41 SE12G20   29.85S HX  98
$$

...OTHER TEXAS OBSERVATIONS...

CITY           SKY/WX    TMP DP  RH WIND       PRES   REMARKS
BROWNSVILLE    PTSUNNY   94  77  57 S15G30    29.85S HX 108
HOUSTON        PTSUNNY   91  74  57 S13       29.93F HX 100
COL. STATION   PTSUNNY   87  75  67 S14       29.92F HX  96
AUSTIN         CLOUDY    90  73  57 SE9       29.90F HX  98
WACO           CLOUDY    83  75  77 S5        29.92S HX  90
FORT WORTH     CLOUDY    74  71  91 NE8       29.96F
WICHITA FALLS  SUNNY     81  57  43 NE17      30.04F
LUBBOCK        MOSUNNY   79  40  24 NE16G26   30.16S
EL PASO        MOSUNNY   79  33  19 SE9       30.13S
$$

...MARINE OBSERVATIONS...

STATION/POSITION TIME  SKY/WX   TEMP    WIND        PRES    VSBY  WAVE   SWELL
                                AIR SEA DIR/SP/G                  HT/PER HT/PER
                 (UTC)          (F)     (DEG/KT/KT) (MB)    (MI)  (FT/S) (FT/S)
PORT ARANSAS     1700            81 81  120/ 11/ 12 1012.5R
BUOY 90 E PORT A 1750            81 81   60/  8/ 10 1014.7R         4/ 6   3/ 6
BUOY 45 SE BAFFI 1750            81     140/ 10/ 12 1011.7S         4/ 6   3/ 6
BUOY 200 E PT IS 1750            81 81  120/ 10/ 12 1014.1R         3/ 6   3/ 6
BUOY 15 E GALVES 1750            80 80  130/ 12/ 14 1015.2F         3/ 6   2/ 6
$$




USA.gov is the U.S. government's official web portal to all federal, state and local government web resources and services.